Regional Weather Roundup
Issued by NWS

Home | Current Version | Previous Version | Text Only | Print | Product List | Glossary On
Versions: 1 2 3 4 5 6 7 8 9 10 11 12 13 14 15 16 17 18 19 20 21 22 23 24 25 26 27 28 29 30 31 32 33 34 35 36 37 38 39 40 41 42 43 44 45 46 47 48 49 50
245
ASUS43 KMKX 140321
RWRWI

WISCONSIN REGIONAL WEATHER ROUNDUP
NATIONAL WEATHER SERVICE MILWAUKEE/SULLIVAN WI
900 PM CST SAT FEB 13 2016

NOTE: "FAIR" INDICATES FEW OR NO CLOUDS BELOW 12,000 FEET WITH NO
SIGNIFICANT WEATHER AND/OR OBSTRUCTIONS TO VISIBILITY.

WIZ001-002-006>008-014>016-023>028-140400-
NORTHWEST WISCONSIN

CITY           SKY/WX    TMP DP  RH WIND       PRES   REMARKS
SUPERIOR ARPT  PTCLDY    -3 -10  71 CALM      30.40S
ASHLAND        CLOUDY    -8 -15  71 S5        30.39F WCI -19
HAYWARD        CLOUDY   -11 -17  75 N5        30.35F WCI -23
SIREN          CLOUDY    -4 -14  62 SE3       30.37F
CUMBERLAND     CLOUDY    -2 -17  50 SE3       30.35F
RICE LAKE      CLOUDY    -2 -13  58 SE3       30.38F
CHETEK         CLOUDY    -6 -13  70 CALM      30.38F
LADYSMITH      CLOUDY    -6 -14  68 SE3       30.39F
EAU CLAIRE     CLOUDY    -4 -12  68 NE3       30.40F
MENOMONIE      CLOUDY    -1 -11  61 CALM      30.40F
NEW RICHMOND   CLOUDY     0 -12  58 SE5       30.37F WCI -10
OSCEOLA        CLOUDY     2  -9  58 SE5       30.40F WCI  -7
$$

WIZ003>005-009-010-017-018-140400-
NORTH CENTRAL WISCONSIN

CITY           SKY/WX    TMP DP  RH WIND       PRES   REMARKS
MANITOWISH WTR CLOUDY   -13 -17  83 CALM      30.33F
ARBOR VITAE    CLOUDY    -6 -12  75 CALM      30.34F
WOODRUFF       CLOUDY    -6 -12  75 CALM      30.34F
RHINELANDER    CLOUDY   -10 -16  74 SW6       30.35F WCI -23
EAGLE RIVER    CLOUDY   -10 -16  76 CALM      30.34S
LAND O LAKES   CLOUDY   -14 -19  78 CALM      30.34F
PHILLIPS       CLOUDY   -10 -16  77 CALM      30.35F
TOMAHAWK       CLOUDY   -12 -17  77 CALM      30.37F
MEDFORD        CLOUDY    -9 -15  76 E3        30.34F
MERRILL        CLOUDY   N/A N/A N/A CALM      30.40F
$$

WIZ029-030-035-036-043>047-140400-
CENTRAL WISCONSIN

CITY           SKY/WX    TMP DP  RH WIND       PRES   REMARKS
WAUSAU         CLOUDY    -2 -10  69 NE5       30.39F WCI -12
MOSINEE        CLEAR      0 -11  60 CALM      30.40F
MARSHFIELD     CLOUDY    -1 -12  59 E3        30.38F
STEVENS POINT  CLOUDY    -9 -15  75 CALM      30.42F
WAUPACA        PTCLDY    -1 -10  64 CALM      30.46S
WAUTOMA        CLOUDY    -7 -14  71 CALM      30.46F
WISC RAPIDS    CLOUDY    -5 -12  72 CALM      30.44F
CAMP DOUGLAS   CLOUDY    -5 -11  75 E2        30.42F
$$

WIZ011>013-019>022-031-037>040-048>050-140400-
NORTHEAST WISCONSIN

CITY           SKY/WX    TMP DP  RH WIND       PRES   REMARKS
ANTIGO         CLOUDY    -6 -13  73 CALM      30.37F
SHAWANO        PTCLDY     6  -7  55 CALM      30.46S
OCONTO         CLOUDY    -2  -9  73 SW5       30.46R WCI -12
STURGEON BAY   CLEAR      3  -9  55 S6        30.47R WCI  -8
GREEN BAY      CLOUDY     3  -9  57 SW5       30.47R WCI  -6
MANITOWOC      CLEAR      2  -6  69 W5        30.48S WCI  -8
APPLETON       PTCLDY     3 -13  47 VRB5      30.44R WCI  -6
CLINTONVILLE   CLOUDY     1 -11  55 CALM      30.45F
OSHKOSH        CLOUDY     0  -9  65 CALM      30.45F
$$

WIZ032>034-041-042-053>061-140400-
SOUTHWEST WISCONSIN

CITY           SKY/WX    TMP DP  RH WIND       PRES   REMARKS
LA CROSSE      CLOUDY     4  -9  55 E5        30.44F WCI  -5
SPARTA         PTCLDY    -5 -12  73 CALM      30.44F
VIROQUA        CLOUDY     4 -12  48 SE5       30.37F WCI  -5
BOSCOBEL       CLOUDY     2  -8  63 CALM      30.46F
PRAIRIE DU CHI CLOUDY     6  -6  59 E3        30.44F
PLATTEVILLE    CLOUDY     6  -5  61 E7        30.42F WCI  -6
$$

WIZ056-057-062-063-064-067-068-140400-
SOUTH CENTRAL WISCONSIN

CITY           SKY/WX    TMP DP  RH WIND       PRES   REMARKS
REEDSBURG      CLOUDY     1  -8  66 CALM      30.44S
BARABOO/DELLS  CLOUDY     0 -11  60 CALM      30.43S
LONE ROCK      PTCLDY     0  -8  69 CALM      30.46F
MINERAL POINT  CLOUDY     7  -8  51 CALM      30.41S
MADISON        CLOUDY     4  -7  60 CALM      30.45F
MIDDLETON      CLOUDY     3  -3  75 CALM      30.44F
WATERTOWN      CLOUDY     2  -4  75 CALM      30.45F
MONROE         CLOUDY     9  -4  56 S3        30.42F
JANESVILLE     CLEAR     10   0  61 CALM      30.46F
$$

WIZ051-052-058>065-066-070>072-140400-
SOUTHEAST WISCONSIN

CITY           SKY/WX    TMP DP  RH WIND       PRES   REMARKS
MILWAUKEE      CLOUDY     8  -6  52 NW3       30.48F
WAUKESHA       CLOUDY     3  -8  60 CALM      30.47F
MILWAUKEE/TIMM CLEAR      7  -6  56 CALM      30.49S
RACINE         CLEAR      7  -7  52 NW3       30.50S
BURLINGTON     CLOUDY     0  -5  77 CALM      30.47S
KENOSHA        CLEAR      7  -5  57 N6        30.47F WCI  -3
FOND DU LAC    CLOUDY    -2  -9  72 S6        30.46S WCI -14
SHEBOYGAN      CLEAR      1  -7  68 SW5       30.47S WCI  -9
WEST BEND      CLOUDY     1  -4  78 CALM      30.46S
JUNEAU         CLOUDY     3  -6  65 CALM      30.46F
$$

LSZ147-162-140400-
LAKE SUPERIOR

STATION/POSITION TIME  TEMP    WIND        PRES    WAVE
                       AIR SEA DIR/SP/G            HT/PER
                 (UTC) (F)     (DEG/KT/KT) (MB)    (FT/S)
DEVILS ISLAND    0300    9     170/  7/  7 1031.1F
SAXON HARBOR     0200   -6                 1029.8F
$$

LMZ867-665-643>646-140400-
LAKE MICHIGAN

STATION/POSITION TIME  TEMP    WIND        PRES    WAVE
                       AIR SEA DIR/SP/G            HT/PER
                 (UTC) (F)     (DEG/KT/KT) (MB)    (FT/S)
CHAMBERS ISLAND  0200    7     190/  5/  8 1031.2F
SISTER BAY       0234    6        CALM       N/A
ALGOMA LAKESHORE 0211             CALM       N/A
KEWAUNEE LAKESHO 0200    5                 1030.8F
SHEBOYGAN LAKESH 0300    7     260/  7/  8 1034.1F
PORT WASHINGTON  0240    6      CALM  /  4 1033.5S
MILWAUKEE LAKESH 0310    9     300/  4/  5   N/A
KENOSHA   LAKESH 0300   11     340/  7/  8 1032.2S
$$

TC  - TEMPERATURE IN CELSIUS
VSB - VISIBILITY IN STATUTE MILES
WCI - WIND CHILL INDEX
HX  - HEAT INDEX





USA.gov is the U.S. government's official web portal to all federal, state and local government web resources and services.